EN

Hourly Weather Al Kufah

Today, 22 January, Friday

Time Temperature Precipitation Wind Pressure Humidity
00:00 +7°C° 0 mm 4 mps 769 mmHg 33%
01:00 +6°C° 0 mm 4 mps 769 mmHg 34%
02:00 +6°C° 0 mm 4 mps 768 mmHg 36%
03:00 +6°C° 0 mm 4 mps 768 mmHg 37%
04:00 +5°C° 0 mm 4 mps 768 mmHg 39%
05:00 +5°C° 0 mm 5 mps 768 mmHg 40%
06:00 +5°C° 0 mm 5 mps 768 mmHg 42%
07:00 +5°C° 0 mm 5 mps 768 mmHg 42%
08:00 +6°C° 0 mm 5 mps 768 mmHg 41%
09:00 +7°C° 0 mm 6 mps 768 mmHg 40%
10:00 +9°C° 0 mm 6 mps 768 mmHg 39%
11:00 +10°C° 0 mm 6 mps 768 mmHg 38%
12:00 +13°C° 0 mm 6 mps 768 mmHg 37%
13:00 +13°C° 0 mm 6 mps 767 mmHg 36%
14:00 +14°C° 0 mm 6 mps 767 mmHg 35%
15:00 +14°C° 0 mm 6 mps 766 mmHg 34%
16:00 +13°C° 0 mm 6 mps 766 mmHg 33%
17:00 +13°C° 0 mm 5 mps 766 mmHg 32%
18:00 +12°C° 0 mm 4 mps 766 mmHg 31%
19:00 +11°C° 0 mm 4 mps 766 mmHg 34%
20:00 +11°C° 0 mm 4 mps 766 mmHg 37%
21:00 +10°C° 0 mm 4 mps 766 mmHg 40%
22:00 +10°C° 0 mm 4 mps 766 mmHg 40%
23:00 +8°C° 0 mm 4 mps 766 mmHg 39%

Tomorrow, 23 January, Saturday

Time Temperature Precipitation Wind Pressure Humidity
00:00 +8°C° 0 mm 4 mps 766 mmHg 39%
01:00 +7°C° 0 mm 4 mps 766 mmHg 41%
02:00 +7°C° 0 mm 4 mps 766 mmHg 43%
03:00 +7°C° 0 mm 4 mps 766 mmHg 45%
04:00 +6°C° 0 mm 4 mps 766 mmHg 46%
05:00 +6°C° 0 mm 4 mps 766 mmHg 47%
06:00 +6°C° 0 mm 4 mps 766 mmHg 49%
07:00 +6°C° 0 mm 4 mps 767 mmHg 48%
08:00 +7°C° 0 mm 4 mps 767 mmHg 46%
09:00 +8°C° 0 mm 4 mps 767 mmHg 45%
10:00 +11°C° 0 mm 4 mps 767 mmHg 39%
11:00 +12°C° 0 mm 5 mps 767 mmHg 34%
12:00 +14°C° 0 mm 5 mps 766 mmHg 28%
13:00 +14°C° 0 mm 4 mps 766 mmHg 26%
14:00 +15°C° 0 mm 4 mps 765 mmHg 23%
15:00 +15°C° 0 mm 4 mps 765 mmHg 21%
16:00 +14°C° 0 mm 4 mps 765 mmHg 24%
17:00 +13°C° 0 mm 4 mps 765 mmHg 26%
18:00 +12°C° 0 mm 4 mps 765 mmHg 28%
19:00 +12°C° 0 mm 3 mps 765 mmHg 30%
20:00 +11°C° 0 mm 3 mps 765 mmHg 32%
21:00 +10°C° 0 mm 3 mps 765 mmHg 34%
22:00 +10°C° 0 mm 3 mps 765 mmHg 34%
23:00 +10°C° 0 mm 3 mps 765 mmHg 35%

Day after tomorrow, 24 January, Sunday

Time Temperature Precipitation Wind Pressure Humidity
00:00 +9°C° 0 mm 3 mps 765 mmHg 35%
01:00 +9°C° 0 mm 3 mps 765 mmHg 36%
02:00 +9°C° 0 mm 3 mps 765 mmHg 37%
03:00 +8°C° 0 mm 3 mps 765 mmHg 39%
04:00 +8°C° 0 mm 2 mps 765 mmHg 39%
05:00 +8°C° 0 mm 2 mps 765 mmHg 40%
06:00 +7°C° 0 mm 2 mps 765 mmHg 40%
07:00 +8°C° 0 mm 2 mps 765 mmHg 38%
08:00 +9°C° 0 mm 2 mps 766 mmHg 35%
09:00 +11°C° 0 mm 1 mps 766 mmHg 33%
10:00 +13°C° 0 mm 2 mps 766 mmHg 30%
11:00 +14°C° 0 mm 2 mps 766 mmHg 27%
12:00 +15°C° 0 mm 2 mps 766 mmHg 24%
13:00 +16°C° 0 mm 2 mps 765 mmHg 22%
14:00 +17°C° 0 mm 2 mps 765 mmHg 21%
15:00 +17°C° 0 mm 3 mps 764 mmHg 20%
16:00 +16°C° 0 mm 3 mps 764 mmHg 22%
17:00 +16°C° 0 mm 3 mps 764 mmHg 24%
18:00 +14°C° 0 mm 3 mps 764 mmHg 27%
19:00 +14°C° 0 mm 2 mps 764 mmHg 28%
20:00 +13°C° 0 mm 2 mps 764 mmHg 30%
21:00 +13°C° 0 mm 2 mps 764 mmHg 31%
22:00 +12°C° 0 mm 2 mps 764 mmHg 31%
23:00 +12°C° 0 mm 2 mps 764 mmHg 31%

25 January, Monday

Time Temperature Precipitation Wind Pressure Humidity
00:00 +12°C° 0 mm 2 mps 764 mmHg 31%
01:00 +12°C° 0 mm 2 mps 764 mmHg 32%
02:00 +10°C° 0 mm 2 mps 764 mmHg 32%
03:00 +10°C° 0 mm 2 mps 764 mmHg 33%
04:00 +10°C° 0 mm 2 mps 764 mmHg 34%
05:00 +10°C° 0 mm 2 mps 764 mmHg 35%
06:00 +9°C° 0 mm 2 mps 764 mmHg 36%
07:00 +10°C° 0 mm 2 mps 764 mmHg 34%
08:00 +12°C° 0 mm 1 mps 765 mmHg 31%
09:00 +13°C° 0 mm 1 mps 765 mmHg 29%
10:00 +15°C° 0 mm 1 mps 765 mmHg 26%
11:00 +16°C° 0 mm 1 mps 765 mmHg 23%
12:00 +16°C° 0 mm 0 mps 764 mmHg 20%
13:00 +19°C° 0 mm 1 mps 764 mmHg 19%
14:00 +20°C° 0 mm 1 mps 764 mmHg 18%
15:00 +21°C° 0 mm 1 mps 763 mmHg 17%
16:00 +20°C° 0 mm 1 mps 763 mmHg 18%
17:00 +18°C° 0 mm 2 mps 763 mmHg 20%
18:00 +17°C° 0 mm 2 mps 763 mmHg 22%
19:00 +16°C° 0 mm 2 mps 763 mmHg 23%
20:00 +15°C° 0 mm 2 mps 764 mmHg 25%
21:00 +15°C° 0 mm 2 mps 764 mmHg 27%
22:00 +14°C° 0 mm 2 mps 764 mmHg 27%
23:00 +14°C° 0 mm 2 mps 764 mmHg 28%

26 January, Tuesday

Time Temperature Precipitation Wind Pressure Humidity
00:00 +14°C° 0 mm 2 mps 764 mmHg 29%
01:00 +13°C° 0 mm 2 mps 764 mmHg 29%
02:00 +13°C° 0 mm 2 mps 764 mmHg 30%
03:00 +12°C° 0 mm 3 mps 764 mmHg 30%
04:00 +12°C° 0 mm 2 mps 764 mmHg 31%
05:00 +12°C° 0 mm 2 mps 764 mmHg 31%
06:00 +10°C° 0 mm 2 mps 764 mmHg 32%
07:00 +13°C° 0 mm 2 mps 764 mmHg 29%
08:00 +14°C° 0 mm 1 mps 764 mmHg 27%
09:00 +15°C° 0 mm 1 mps 765 mmHg 24%
10:00 +16°C° 0 mm 1 mps 764 mmHg 22%
11:00 +18°C° 0 mm 1 mps 764 mmHg 20%
12:00 +20°C° 0 mm 1 mps 764 mmHg 18%
13:00 +20°C° 0 mm 1 mps 763 mmHg 17%
14:00 +21°C° 0 mm 1 mps 763 mmHg 17%
15:00 +21°C° 0 mm 2 mps 762 mmHg 16%
16:00 +20°C° 0 mm 2 mps 762 mmHg 18%
17:00 +18°C° 0 mm 2 mps 762 mmHg 19%
18:00 +17°C° 0 mm 2 mps 762 mmHg 21%
19:00 +17°C° 0 mm 2 mps 762 mmHg 22%
20:00 +16°C° 0 mm 2 mps 763 mmHg 24%
21:00 +15°C° 0 mm 2 mps 763 mmHg 25%
22:00 +15°C° 0 mm 2 mps 763 mmHg 25%
23:00 +14°C° 0 mm 2 mps 762 mmHg 26%

27 January, Wednesday

Time Temperature Precipitation Wind Pressure Humidity
00:00 +14°C° 0 mm 1 mps 762 mmHg 26%
01:00 +14°C° 0 mm 1 mps 762 mmHg 26%
02:00 +14°C° 0 mm 1 mps 762 mmHg 26%
03:00 +13°C° 0 mm 2 mps 762 mmHg 26%
04:00 +13°C° 0 mm 2 mps 761 mmHg 26%
05:00 +13°C° 0 mm 2 mps 761 mmHg 26%
06:00 +13°C° 0 mm 2 mps 761 mmHg 26%
07:00 +13°C° 0 mm 3 mps 761 mmHg 24%
08:00 +14°C° 0 mm 3 mps 761 mmHg 23%
09:00 +16°C° 0 mm 3 mps 761 mmHg 22%
10:00 +19°C° 0 mm 4 mps 760 mmHg 19%
11:00 +21°C° 0 mm 5 mps 760 mmHg 17%
12:00 +23°C° 0 mm 7 mps 759 mmHg 14%
13:00 +24°C° 0 mm 7 mps 758 mmHg 14%
14:00 +24°C° 0 mm 8 mps 757 mmHg 14%
15:00 +26°C° 0 mm 9 mps 756 mmHg 14%
16:00 +24°C° 0 mm 9 mps 756 mmHg 15%
17:00 +23°C° 0 mm 8 mps 755 mmHg 16%
18:00 +22°C° 0 mm 8 mps 755 mmHg 18%
19:00 +22°C° 0 mm 9 mps 755 mmHg 18%
20:00 +21°C° 0 mm 9 mps 755 mmHg 19%
21:00 +21°C° 0 mm 10 mps 755 mmHg 19%
22:00 +21°C° 0 mm 9 mps 754 mmHg 21%
23:00 +19°C° 0 mm 9 mps 754 mmHg 23%
Show more